STARLINK-34233 (64172 NORAD) Tracking and Keplerian Element Data

This shows tracking and keplerian element data for the satellite.

Feedback or suggestion? Click here.




ElementValue
Catalog64172
NameSTARLINK-34233
Epoch Orbit3286
Epoch Day353.99944401
Epoch Year2025
RAAN101.3286
Inclination53.1587
Eccentricity0.0001178
Argument of Perigee84.5772
Mean Anonmoly275.5363
Mean Motion15.3020362
Decay Rate0.00026535
L11 64172U 25113C 25353.99944401 .00026535 00000+0 90471-3 0 9994
L22 64172 53.1587 101.3286 0001178 84.5772 275.5363 15.30203620 32864



Live tracking and technical data element details for STARLINK-34233 (NORAD 64172). STARLINK-34233 can be tracked NOW for your location showing map with azimuth and elevation plus other details from your city location.







IsCatalogInMostPopularTable: catalog: 64172, numindb: 11
Update: records affected: 1



GetName: 64172 STARLINK-34233

Hit Count: updated at: Tue, 21 Apr 2026 20:48:10 GMT